Regional Weather Roundup
Issued by NWS

Home | Current Version | Previous Version | Text Only | Print | Product List | Glossary Off
Versions: 1 2 3 4 5 6 7 8 9 10 11 12 13 14 15 16 17 18 19 20 21 22 23 24 25 26 27 28 29 30 31 32 33 34 35 36 37 38 39 40 41 42 43 44 45 46 47 48 49 50

000
ASUS43 KLMK 291802
RWRKY
KENTUCKY REGIONAL WEATHER ROUNDUP
NATIONAL WEATHER SERVICE LOUISVILLE KY
200 PM EDT SUN MAR 29 2015

NOTE "FAIR" INDICATES FEW OR NO CLOUDS BELOW 12,000 FEET
WITH NO SIGNIFICANT WEATHER AND/OR OBSTRUCTIONS TO VISIBILITY.

KYZ001>023-026-027-061>063-070>075-291900-
WESTERN AND SOUTH CENTRAL KENTUCKY

CITY           SKY/WX    TMP DP  RH WIND       PRES   REMARKS
PADUCAH        SUNNY     56  26  31 S17G23    30.16F
HENDERSON      SUNNY     54  21  28 S18       30.18F
OWENSBORO      SUNNY     52  22  31 S16G23    30.21F
HOPKINSVILLE   PTSUNNY   57  19  23 S12G20    30.21F
BOWLING GREEN  SUNNY     55  13  18 S14       30.24F
GLASGOW        NOT AVBL
$$

KYZ024-025-028>034-038-045-046-053-291900-
NORTH CENTRAL KENTUCKY

CITY           SKY/WX    TMP DP  RH WIND       PRES   REMARKS
LOUISVILLE/SDF PTSUNNY   52  15  23 S13G25    30.21F
LOUISVILLE/LOU SUNNY     50  12  21 S16G23    30.23F
FORT KNOX      SUNNY     52  16  24 SE15G23   30.19F
$$

KYZ035>037-039>044-047>052-055>060-089>105-291900-
NORTHEAST KENTUCKY

CITY           SKY/WX    TMP DP  RH WIND       PRES   REMARKS
LEXINGTON      SUNNY     50  11  20 S16G23    30.24F
COVINGTON      PTSUNNY   47  14  26 S18G26    30.20F
FRANKFORT      SUNNY     50  12  21 SE12G20   30.22F
$$

KYZ054-064>069-076>088-106>120-291900-
SOUTHEAST KENTUCKY

CITY           SKY/WX    TMP DP  RH WIND       PRES   REMARKS
JACKSON        SUNNY     51   8  17 VRB6      30.27F
LONDON         SUNNY     51   7  16 S8G18     30.27F
SOMERSET       NOT AVBL
MIDDLESBORO    SUNNY     50  14  24 S9        30.31F
MONTICELLO     CLEAR     55   9  16 S8        30.28F
$$



USA.gov is the U.S. government's official web portal to all federal, state and local government web resources and services.